Home > Weather > Larvik > Past weeks

Flag for Norway Past Weather in Larvik, Norway — Yesterday and Last 2 Weeks

Now
55 °F

Overcast.


Feels Like: 53 °F
Forecast: 58 / 72 °F
Wind: 9 mph from Northeast

Location: Torp

Current Time: May 30, 2016 at 5:03:48 AM

Latest Report: May 30, 2016 at 4:20 AM


Visibility: N/A

Pressure: 30.12 "Hg

Humidity: 100%

Dew Point: 55 °F

Location of LarvikLocation

Past Weather in Larvik — Graph

°F

Larvik Temperature Yesterday

Maximum temperature yesterday: 57 °F (at 12:20 AM)
Minimum temperature yesterday: 54 °F (at 5:50 AM)
Average temperature yesterday: 55 °F

High & Low Weather Summary for the Past Weeks

 TemperatureHumidityPressure
High68 °F (May 27, 3:50 PM)100% (May 17, 11:50 PM)30.18 "Hg (May 17, 11:50 PM)
Low37 °F (May 17, 5:20 AM)29% (May 15, 6:20 PM)29.62 "Hg (May 18, 4:50 AM)
Average53 °F77%29.91 "Hg
* Reported May 15 3:20 AM — May 30 3:50 AM, Larvik, Weather by CustomWeather, © 2016

Note: Actual official high and low records may vary slightly from our data, if they occured in-between our weather recording intervals... More about our weather records

Advertising

Larvik Weather History for the Previous 24 Hours

Scroll right to see more
 ConditionsComfort  
Time TempWeatherWind HumidityBarometerVisibility
3:50 AM
Mon, May 30
55 °FOvercast.9 mph100%30.12 "HgN/A
3:20 AM55 °FOvercast.9 mph100%30.12 "HgN/A
2:50 AM55 °FOvercast.10 mph100%30.12 "HgN/A
2:20 AM55 °FOvercast.10 mph100%30.12 "HgN/A
1:50 AM55 °FOvercast.9 mph100%30.12 "HgN/A
1:20 AM55 °FOvercast.10 mph100%30.12 "HgN/A
12:50 AM55 °FLow clouds.9 mph100%30.12 "HgN/A
12:20 AM55 °FLow clouds.9 mph100%30.12 "HgN/A
11:50 PM
Sun, May 29
55 °FPassing clouds.12 mph100%30.12 "HgN/A
11:20 PM55 °FFog.14 mph100%30.12 "Hg2 mi
10:50 PM55 °FFog.12 mph100%30.12 "Hg2 mi
10:20 PM55 °FFog.12 mph100%30.12 "Hg2 mi
9:50 PM55 °FFog.12 mph100%30.12 "Hg2 mi
9:20 PM55 °FFog.9 mph100%30.12 "Hg2 mi
8:50 PM55 °FFog.9 mph100%30.12 "Hg3 mi
8:20 PM55 °FDrizzle. Partly sunny.8 mph100%30.09 "Hg4 mi
7:50 PM55 °FPartly sunny.9 mph100%30.09 "Hg5 mi
7:20 PM55 °FDrizzle. Partly sunny.9 mph100%30.09 "Hg5 mi
6:50 PM55 °FLow clouds.8 mph100%30.09 "Hg4 mi
6:20 PM55 °FLow clouds.9 mph100%30.09 "HgN/A
5:50 PM55 °FLow clouds.8 mph100%30.09 "HgN/A
5:20 PM55 °FPartly sunny.7 mph100%30.09 "HgN/A
4:50 PM55 °FPartly sunny.8 mph100%30.09 "HgN/A
4:20 PM55 °FPartly sunny.8 mph100%30.09 "HgN/A
3:50 PM55 °FBroken clouds.9 mph100%30.09 "HgN/A
3:20 PM55 °FBroken clouds.6 mph100%30.09 "HgN/A
2:50 PM55 °FBroken clouds.7 mph100%30.09 "HgN/A
2:20 PM55 °FScattered showers. Broken clouds.9 mph100%30.09 "HgN/A
1:50 PM54 °FDrizzle. Broken clouds.9 mph100%30.09 "Hg6 mi
1:20 PM54 °FRain. Partly sunny.10 mph100%30.09 "Hg3 mi
12:50 PM54 °FRain. Partly sunny.9 mph100%30.09 "Hg3 mi
12:20 PM54 °FLight rain. Partly sunny.9 mph100%30.12 "Hg6 mi
11:50 AM54 °FLight rain. Partly sunny.10 mph100%30.12 "HgN/A
11:20 AM55 °FPartly sunny.12 mph100%30.12 "HgN/A
10:50 AM54 °FBroken clouds.9 mph100%30.12 "HgN/A
10:20 AM54 °FPartly sunny.8 mph100%30.12 "HgN/A
9:50 AM54 °FDrizzle. Partly sunny.9 mph100%30.12 "HgN/A
9:20 AM54 °FBroken clouds.8 mph100%30.12 "HgN/A
8:50 AM54 °FLight rain. Partly sunny.9 mph100%30.12 "HgN/A
8:20 AM54 °FLow clouds.9 mph100%30.12 "HgN/A
7:50 AM54 °FLight rain. Partly sunny.9 mph100%30.12 "HgN/A
7:20 AM54 °FBroken clouds.7 mph100%30.12 "HgN/A
6:50 AM54 °FLight rain. Partly sunny.6 mph100%30.12 "HgN/A
6:20 AM54 °FDrizzle. Low clouds.9 mph100%30.12 "HgN/A
5:50 AM54 °FOvercast.10 mph100%30.12 "HgN/A
5:20 AM55 °FOvercast.8 mph88%30.12 "HgN/A
Weather by CustomWeather, © 2016

See weather overviewHow to use our weather pages